Terminal Aerodrome Forecast
Issued by NWS Wilmington, OH

Current Version | Previous Version | Graphics & Text | Print | Product List | Glossary On
Versions: 1 2 3 4 5 6 7 8 9 10 11 12 13 14 15 16 17 18
000
FTUS41 KILN 272058 AAA
TAFILN
TAF AMD
KILN 272058Z 2721/2818 VRB06KT P6SM SCT040
     FM272300 04005KT P6SM SCT050
     FM280000 06003KT P6SM SKC
     FM280800 VRB02KT 4SM BR SKC
     FM281000 VRB02KT 2SM BR SKC
     FM281300 13005KT P6SM SKC=

USA.gov is the U.S. government's official web portal to all federal, state and local government web resources and services.